[[{"header":{"parameterUnit":"m.s-1","parameterCategory":1,"la1":30.2991,"la2":30.254,"lo1":-89.0895,"lo2":-89.0444,"dy":0.0017,"dx":0.0017,"nx":28,"ny":28,"refTime":"2024-08-30T21:00:00:Z","depth":0,"parameterNumber":2,"parameterNumberName":"U-component_of_WINDS"},"data":[0,0,0,0,0,0,0,0,0,0,0,0,0,0,0,0,0,0,0,0,0,0,0,0,0,0,0,0,0,0,0,0,0,0,0,0,0,0,0,0,0,0,0,0,0,0,0,0,0,0,0,0,0,0,0,0,0,0,-3.9119,-3.9119,0,-3.9064,-3.9063,-3.9062,-3.9007,-3.9006,-3.9005,-3.9004,-3.8942,-3.8941,-3.894,0,0,0,0,0,0,0,0,0,0,0,0,0,-3.9174,-3.9174,-3.912,-3.9119,-3.9118,-3.9064,-3.9063,-3.9062,-3.9007,-3.9006,-3.9005,-3.9004,-3.8942,-3.8941,-3.894,0,0,0,0,0,0,0,0,0,0,0,0,0,-3.9138,-3.9173,-3.912,-3.9084,-3.908,-3.9064,-3.9063,-3.9062,-3.9007,-3.9006,-3.9005,-3.9004,-3.8943,-3.8941,-3.894,-3.8953,0,0,-3.8935,-3.8935,0,0,0,0,0,0,0,0,-3.914,-3.9136,-3.909,-3.9086,-3.9082,-3.9041,-3.9059,-3.9025,-3.9007,-3.9035,-3.9004,-3.9003,-3.8976,-3.8971,-3.8963,-3.895,-3.8947,-3.8935,-3.8934,-3.8934,-3.8933,0,0,0,0,0,0,0,-3.9142,-3.9138,-3.9097,-3.9089,-3.9085,-3.9069,-3.9063,-3.9053,-3.9012,-3.9032,-3.9028,-3.9022,-3.8973,-3.8965,-3.8961,-3.8946,-3.8935,-3.8934,-3.8933,-3.8932,-3.8939,-3.894,0,0,0,0,0,0,-3.9151,-3.914,-3.9099,-3.9096,-3.9109,-3.9069,-3.9062,-3.9055,-3.9012,-3.9004,-3.9023,-3.902,-3.8968,-3.8963,-3.8959,-3.8969,-3.8934,-3.8932,-3.8932,-3.8938,-3.8939,-3.894,0,0,0,0,0,0,-3.9152,-3.9148,-3.9101,-3.9117,-3.911,-3.907,-3.9062,-3.9055,-3.9046,-3.9005,-3.8997,-3.9022,-3.8967,-3.8961,-3.8955,-3.8967,-3.8932,-3.893,-3.8937,-3.8938,-3.894,-3.8992,0,0,0,0,0,0,-3.9154,-3.9149,-3.9154,-3.9117,-3.9109,-3.91,-3.9063,-3.9054,-3.9044,-3.9039,-3.9002,-3.8995,-3.8965,-3.8957,-3.8953,-3.8964,-3.8929,-3.8935,-3.8937,-3.8939,-3.8989,-3.8995,-3.9001,0,0,0,0,0,-3.9156,-3.917,-3.9154,-3.915,-3.9115,-3.91,-3.9095,-3.9063,-3.9046,-3.905,-3.9024,-3.8996,-3.8967,-3.8957,-3.8952,-3.8963,-3.8934,-3.8937,-3.8939,-3.8986,-3.8994,-3.9,0,0,0,0,0,0,-3.9207,-3.9164,-3.9147,-3.9149,-3.9129,-3.9091,-3.9095,-3.9072,-3.9055,-3.9051,-3.9009,-3.9001,-3.9,-3.898,-3.8971,-3.8972,-3.8946,-3.8948,-3.8984,-3.8991,-3.8997,-3.9,-3.8928,0,0,0,0,0,-3.9219,-3.9212,-3.9175,-3.918,-3.9171,-3.9136,-3.9128,-3.9105,-3.9081,-3.9072,-3.9045,-3.9022,-3.9007,-3.8998,-3.8983,-3.8987,-3.8977,-3.8991,-3.8997,-3.9002,-3.9003,-3.9003,-3.9008,-3.8948,-3.8948,-3.8948,0,0,-3.9243,-3.9219,-3.9216,-3.919,-3.9172,-3.9164,-3.9128,-3.9122,-3.9115,-3.907,-3.9063,-3.9043,-3.9014,-3.9013,-3.9011,-3.8997,-3.9018,-3.9005,-3.901,-3.9008,-3.9006,-3.9011,-3.9016,-3.895,-3.8949,-3.8949,0,0,-3.9282,-3.9264,-3.9266,-3.9249,-3.9222,-3.9198,-3.9199,-3.9165,-3.915,-3.9142,-3.9108,-3.9099,-3.9075,-3.9056,-3.9043,-3.9076,-3.905,-3.9072,-3.9102,-3.9101,-3.9106,-3.911,-3.912,-3.9125,-3.9074,-3.9074,-3.9074,0,-3.9314,-3.9302,-3.927,-3.9265,-3.9254,-3.9216,-3.9217,-3.9201,-3.917,-3.9163,-3.9148,-3.9117,-3.9096,-3.9089,-3.9097,-3.9089,-3.9086,-3.9075,-3.9109,-3.9112,-3.9115,-3.9124,-3.9128,-3.9077,-3.9077,-3.9076,-3.9076,0,-3.9342,-3.9335,-3.934,-3.9313,-3.9302,-3.9301,-3.9267,-3.926,-3.9238,-3.9216,-3.9208,-3.9181,-3.9158,-3.9156,-3.9133,-3.9145,-3.9137,-3.9117,-3.909,-3.9124,-3.9132,-3.9135,-3.9081,-3.908,-3.9079,-3.9079,0,0,-3.9409,-3.9366,-3.9368,-3.9355,-3.9323,-3.9316,-3.9312,-3.9293,-3.9287,-3.9267,-3.9262,-3.9243,-3.9224,-3.9209,-3.9185,-3.9185,-3.9211,-3.9163,-3.9162,-3.9172,-3.922,-3.9235,-3.924,-3.9194,-3.9195,-3.9195,-3.9222,0,-3.9441,-3.9434,-3.9406,-3.9406,-3.9398,-3.9362,-3.9358,-3.9338,-3.9317,-3.9306,-3.9282,-3.9269,-3.9245,-3.9236,-3.9235,-3.9208,-3.922,-3.9206,-3.9186,-3.9186,-3.9193,-3.9244,-3.926,-3.9286,-3.9225,-3.9226,-3.9226,0,-3.9477,-3.9462,-3.9462,-3.9431,-3.9426,-3.9424,-3.9403,-3.9394,-3.9369,-3.9354,-3.9339,-3.9312,-3.9304,-3.9281,-3.9269,-3.9261,-3.9251,-3.9237,-3.9237,-3.9232,-3.9207,-3.9239,-3.9294,-3.9298,-3.9231,-3.9231,-3.923,0,-3.9524,-3.9503,-3.95,-3.9491,-3.9454,-3.9453,-3.9438,-3.9413,-3.9403,-3.9384,-3.9377,-3.9358,-3.9347,-3.9331,-3.9299,-3.9286,-3.9291,-3.9265,-3.9276,-3.9276,-3.9276,-3.9276,-3.9329,-3.9274,-3.9274,-3.9274,-3.9274,0,-3.9562,-3.9563,-3.9521,-3.9519,-3.9519,-3.9486,-3.9486,-3.9467,-3.9445,-3.9438,-3.9405,-3.9399,-3.9358,-3.9346,-3.9321,-3.9314,-3.931,-3.9296,-3.9288,-3.9297,-3.9299,-3.9289,-3.9285,-3.9275,-3.9275,-3.9274,-3.9274,0,-3.9613,-3.9586,-3.958,-3.9547,-3.9539,-3.954,-3.951,-3.9506,-3.9485,-3.9475,-3.9471,-3.9436,-3.942,-3.9388,-3.9363,-3.9346,-3.9344,-3.9333,-3.9353,-3.9348,-3.936,-3.9358,-3.9406,-3.941,-3.9355,-3.9355,-3.9356,0,-3.9638,-3.9638,-3.9606,-3.9599,-3.9586,-3.9576,-3.9566,-3.9533,-3.9524,-3.9496,-3.9495,-3.9478,-3.9462,-3.9438,-3.9409,-3.9389,-3.9376,-3.9395,-3.9373,-3.9382,-3.9374,-3.9374,-3.9373,-3.9398,-3.9399,-3.94,-3.94,0,-3.9684,-3.9671,-3.9659,-3.9642,-3.9631,-3.9616,-3.9599,-3.9595,-3.9558,-3.9549,-3.9534,-3.9522,-3.9497,-3.9479,-3.9456,-3.9438,-3.9412,-3.9408,-3.9409,-3.9417,-3.9428,-3.942,-3.9364,-3.9406,-3.9406,-3.9405,-3.9405,-3.9405,-3.9721,-3.972,-3.9697,-3.9684,-3.9668,-3.9653,-3.9648,-3.9626,-3.9613,-3.9592,-3.9574,-3.956,-3.9534,-3.9501,-3.9484,-3.9472,-3.9459,-3.9461,-3.9461,-3.9462,-3.9465,-3.9432,-3.9467,-3.9467,-3.9467,-3.9467,-3.9467,0,-3.9764,-3.9748,-3.9737,-3.9715,-3.9705,-3.9685,-3.9665,-3.9657,-3.9646,-3.9626,-3.9612,-3.9594,-3.9576,-3.9547,-3.9526,-3.9522,-3.951,-3.9517,-3.9516,-3.9512,-3.9478,-3.9478,-3.9528,-3.9528,-3.9528,-3.9528,-3.9528,-3.9528,-3.9785,-3.9781,-3.9765,-3.9753,-3.9736,-3.9724,-3.9714,-3.9699,-3.9683,-3.9665,-3.9651,-3.9633,-3.9608,-3.9586,-3.9569,-3.956,-3.9553,-3.9565,-3.9552,-3.952,-3.9515,-3.9509,-3.9509,-3.9564,-3.9564,-3.9587,-3.9587,-3.9588]},{"header":{"parameterUnit":"m.s-1","parameterCategory":1,"la1":30.2991,"la2":30.254,"lo1":-89.0895,"lo2":-89.0444,"dy":0.0017,"dx":0.0017,"nx":28,"ny":28,"refTime":"2024-08-30T21:00:00:Z","depth":0,"parameterNumber":3,"parameterNumberName":"V-component_of_WINDS"},"data":[0,0,0,0,0,0,0,0,0,0,0,0,0,0,0,0,0,0,0,0,0,0,0,0,0,0,0,0,0,0,0,0,0,0,0,0,0,0,0,0,0,0,0,0,0,0,0,0,0,0,0,0,0,0,0,0,0,0,0.6735,0.6733,0,0.6541,0.6539,0.6537,0.6511,0.6513,0.6515,0.6517,0.6315,0.6309,0.6302,0,0,0,0,0,0,0,0,0,0,0,0,0,0.7086,0.708,0.6736,0.6733,0.6731,0.6542,0.6539,0.6536,0.6511,0.6513,0.6515,0.6518,0.6318,0.6309,0.6301,0,0,0,0,0,0,0,0,0,0,0,0,0,0.6917,0.7078,0.6736,0.6695,0.669,0.6542,0.6539,0.6535,0.651,0.6513,0.6516,0.6519,0.6321,0.631,0.63,0.6178,0,0,0.6267,0.6263,0,0,0,0,0,0,0,0,0.6927,0.6904,0.6704,0.6698,0.6691,0.6553,0.6589,0.6416,0.651,0.6578,0.6517,0.652,0.6392,0.6376,0.6333,0.6169,0.616,0.6266,0.626,0.6255,0.6252,0,0,0,0,0,0,0,0.6938,0.6912,0.6659,0.6701,0.6693,0.6687,0.6666,0.6556,0.6472,0.6573,0.657,0.6548,0.6389,0.6344,0.6328,0.6157,0.6267,0.6257,0.6251,0.6246,0.5886,0.5883,0,0,0,0,0,0,0.6958,0.6922,0.6665,0.6653,0.6818,0.6679,0.6655,0.6595,0.6473,0.6457,0.6546,0.6547,0.636,0.6341,0.6321,0.6171,0.6255,0.6245,0.6239,0.5889,0.5886,0.5882,0,0,0,0,0,0,0.6965,0.6935,0.6673,0.6787,0.6753,0.667,0.6602,0.659,0.6544,0.6453,0.6438,0.6514,0.6362,0.6336,0.6215,0.6164,0.6241,0.6231,0.5893,0.5888,0.5884,0.5871,0,0,0,0,0,0,0.6975,0.6938,0.689,0.6786,0.6747,0.6569,0.6599,0.6584,0.6526,0.6526,0.6419,0.6404,0.6362,0.6231,0.6204,0.6151,0.6223,0.5897,0.5891,0.5885,0.5875,0.5866,0.5859,0,0,0,0,0,0.6988,0.6893,0.6888,0.6857,0.6686,0.6566,0.6544,0.6498,0.6522,0.6473,0.6416,0.6407,0.6175,0.6218,0.6188,0.6131,0.59,0.5893,0.5886,0.5879,0.5868,0.5859,0,0,0,0,0,0,0.6991,0.6878,0.6871,0.674,0.6663,0.6562,0.6499,0.6487,0.6401,0.6405,0.6351,0.6327,0.6209,0.6158,0.6209,0.6009,0.604,0.6026,0.6045,0.6034,0.6026,0.6039,0.6214,0,0,0,0,0,0.6977,0.689,0.6796,0.6689,0.6651,0.6582,0.6528,0.65,0.6418,0.6385,0.6318,0.6238,0.6148,0.6088,0.6,0.587,0.5846,0.5816,0.5808,0.5801,0.5789,0.5718,0.5703,0.5859,0.5859,0.5859,0,0,0.6946,0.6874,0.6821,0.6688,0.6625,0.6536,0.6555,0.6459,0.6392,0.637,0.6251,0.62,0.6108,0.5982,0.5924,0.5936,0.5742,0.5792,0.5787,0.5778,0.5709,0.5694,0.5681,0.5854,0.5855,0.5855,0,0,0.6843,0.678,0.6685,0.6622,0.6528,0.6483,0.6461,0.6362,0.6328,0.6209,0.6191,0.6112,0.5956,0.5892,0.5838,0.5718,0.5707,0.569,0.5645,0.5576,0.5564,0.5553,0.5509,0.5494,0.5679,0.5679,0.5679,0,0.6816,0.668,0.6637,0.6542,0.6485,0.6464,0.6367,0.6309,0.619,0.6151,0.6168,0.5974,0.5911,0.577,0.5741,0.5699,0.5672,0.57,0.5569,0.5558,0.5547,0.5505,0.5488,0.5678,0.5678,0.5678,0.5678,0,0.6652,0.6559,0.6493,0.6381,0.6316,0.6221,0.6164,0.6105,0.6084,0.6038,0.5919,0.5843,0.5739,0.5704,0.5682,0.5561,0.5573,0.5581,0.561,0.5531,0.5491,0.5474,0.5676,0.5676,0.5677,0.5677,0,0,0.654,0.6409,0.6385,0.6335,0.6231,0.6158,0.6065,0.5965,0.5915,0.5835,0.5754,0.5626,0.5634,0.5574,0.5545,0.5485,0.5395,0.55,0.5497,0.5482,0.5258,0.5251,0.5233,0.5389,0.5386,0.5383,0.5265,0,0.6424,0.6255,0.6215,0.607,0.5984,0.5966,0.5884,0.5812,0.5768,0.569,0.5642,0.5551,0.5568,0.5532,0.5473,0.5418,0.5348,0.5427,0.5312,0.5309,0.5333,0.5211,0.5203,0.5094,0.5249,0.5246,0.5244,0,0.6265,0.6183,0.603,0.5941,0.5903,0.583,0.5737,0.5662,0.5582,0.5555,0.549,0.5469,0.5371,0.5409,0.5274,0.5328,0.528,0.5247,0.5242,0.5227,0.527,0.5191,0.5059,0.5042,0.5219,0.5221,0.5223,0,0.6198,0.605,0.5939,0.5897,0.5791,0.574,0.5693,0.5616,0.556,0.5479,0.5442,0.5352,0.5301,0.5232,0.5187,0.5219,0.5055,0.5089,0.5029,0.503,0.4992,0.4995,0.4848,0.4966,0.4966,0.4966,0.4967,0,0.607,0.5977,0.5908,0.584,0.5736,0.5693,0.5591,0.5544,0.5477,0.54,0.538,0.5308,0.5254,0.5175,0.514,0.5034,0.5012,0.4987,0.4978,0.4987,0.499,0.4952,0.4957,0.4962,0.4963,0.4964,0.4965,0,0.5975,0.5926,0.5804,0.5715,0.5691,0.5618,0.5541,0.5475,0.5434,0.5337,0.5312,0.5246,0.5152,0.5102,0.4985,0.4962,0.4842,0.4839,0.4869,0.4865,0.4807,0.4813,0.4629,0.4603,0.474,0.4739,0.4738,0,0.5896,0.5824,0.5728,0.5676,0.5628,0.5544,0.5488,0.5445,0.5387,0.5293,0.5238,0.5144,0.5066,0.4919,0.486,0.4771,0.4764,0.4706,0.475,0.4762,0.4762,0.4765,0.4758,0.4697,0.4696,0.4695,0.4694,0,0.5759,0.574,0.5659,0.5571,0.5504,0.5432,0.5361,0.532,0.5266,0.5202,0.5107,0.5047,0.493,0.4837,0.4745,0.4697,0.4686,0.4682,0.4663,0.4669,0.469,0.4677,0.4846,0.4685,0.4686,0.4686,0.4687,0.4687,0.5668,0.5604,0.5528,0.5439,0.5383,0.5318,0.5252,0.5204,0.5124,0.5025,0.5006,0.4906,0.4831,0.4706,0.4657,0.4579,0.459,0.4563,0.4555,0.4549,0.4546,0.4705,0.4562,0.4562,0.4562,0.4562,0.4563,0,0.553,0.5481,0.5401,0.5303,0.5234,0.5234,0.5157,0.5099,0.5011,0.4943,0.4869,0.4761,0.4673,0.461,0.452,0.4469,0.4462,0.4447,0.4448,0.4438,0.4541,0.4566,0.4454,0.4454,0.4454,0.4454,0.4454,0.4454,0.5449,0.5341,0.5313,0.5178,0.513,0.5033,0.4989,0.493,0.4875,0.4757,0.4684,0.4644,0.4578,0.4484,0.4404,0.4388,0.4354,0.4339,0.4322,0.4419,0.443,0.4441,0.4464,0.4333,0.4333,0.4225,0.4224,0.4224]}]]